Regional Weather Roundup
Issued by NWS Jackson, KY

Home | Current Version | Previous Version | Text Only | Print | Product List | Glossary On
Versions: 1 2 3 4 5 6 7 8 9 10 11 12 13 14 15 16 17 18 19 20 21 22 23 24 25 26 27 28 29 30 31 32 33 34 35 36 37 38 39 40 41 42 43 44 45 46 47 48 49 50
000
ASUS43 KJKL 202319
RWRJKL

EAST KENTUCKY HOURLY WEATHER ROUNDUP
NATIONAL WEATHER SERVICE JACKSON KY
600 PM EST THU NOV 20 2014

NOTE: "FAIR" INDICATES FEW OR NO CLOUDS BELOW 12,000 FEET WITH
NO SIGNIFICANT WEATHER AND/OR OBSTRUCTIONS TO VISIBILITY.

* THESE REPORTS ARE NOT UNDER NWS QUALITY CONTROL AND MAY NOT
  REPORT WEATHER SUCH AS PRECIPITATION AND FOG.

KYZ079-080-083-085-087-088-110-112-115-119-120-210000
...EASTERN KENTUCKY...

CITY           SKY/WX    TMP DP  RH WIND       PRES   REMARKS
JACKSON        CLEAR     34  17  50 NW8       30.13R WCI  27
LONDON         CLEAR     37  15  40 W6        30.15R WCI  32
SOMERSET*      CLEAR     36  18  48 NW5       30.18S WCI  32
MONTICELLO*    CLEAR     36  18  48 W6        30.21R WCI  31
MIDDLESBORO*   CLEAR     39  22  51 CALM      30.14S
HARLAN APT*    CLEAR     37  18  44 NW6       30.12S WCI  33
BIG SANDY*     CLEAR     36  17  47 NW6       30.12R WCI  31
MOREHEAD APT*  CLEAR     30  16  55 CALM      30.19R
$$

KYZ035-036-041-042-044-050-067-078-099-210000
...CENTRAL KENTUCKY...

CITY           SKY/WX    TMP DP  RH WIND       PRES   REMARKS
MT STERLING*   CLEAR     30  19  64 W6        30.18S WCI  24
FLEMING/MASON* CLEAR     26  16  64 SW9       30.18R WCI  17
DANVILLE*      CLEAR     32  19  59 NW6       30.19S WCI  26
RICHMOND*      CLEAR     30  19  64 W5        30.17S WCI  25
LEXINGTON      CLEAR     28  17  63 W6        30.18R WCI  22
FRANKFORT      CLEAR     30  16  56 W3        30.19R
$$

KYZ091>093-OHZ055-061-077-WVZ005-015-034-035-042-210000
...SOUTHERN OHIO/WEST VIRGINIA...

CITY           SKY/WX    TMP DP  RH WIND       PRES   REMARKS
COVINGTON      PTCLDY    28  13  53 SW6       30.16R WCI  22
COLUMBUS       PTCLDY    26  13  57 W13       30.12R WCI  15
DAYTON         PTCLDY    26  14  60 W13       30.13R WCI  15
WILMINGTON     CLEAR     25  13  60 SW9       30.12R WCI  15
HUNTINGTON     CLEAR     31  16  54 VRB6      30.15R WCI  25
CHARLESTON     CLEAR     34  15  46 W5        30.11R WCI  30
PINEVILLE*     CLEAR     34  26  75 MISG      30.11R
BECKLEY        CLEAR     34  15  46 W12       30.02R WCI  25
BLUEFIELD      CLEAR     38  13  35 W13G22    30.01R WCI  30
$$

VAZ002-007-008-TNZ017-027-036-066-071-210000
...SOUTHWEST VIRGINIA/EAST TENNESSEE...

CITY           SKY/WX    TMP DP  RH WIND       PRES   REMARKS
WISE*          CLEAR     36  14  41 W9        30.07S WCI  29
JONESVILLE*    CLEAR     39  19  45 NW7       30.14R WCI  34
ABINGDON*      CLEAR     41  20  42 NW5       30.08R
BRISTOL        CLEAR     43  26  51 W8        30.10R
KNOXVILLE      CLEAR     47  22  37 W13       30.16R
OAK RIDGE      CLEAR     47  21  35 VRB3      30.17R
CROSSVILLE     CLEAR     41  22  46 W8        30.17R
NASHVILLE      CLEAR     45  18  34 SW3       30.22S
$$

...KEY TO REMARKS...
VSB - VISIBILITY IN MILES
WCI - WIND CHILL INDEX
HX  - HEAT INDEX

$$


USA.gov is the U.S. government's official web portal to all federal, state and local government web resources and services.